Back to Previous

Regional Weather Roundup

000
ASUS44 KLZK 072005
RWRLZK

WEATHER ROUNDUP FOR ARKANSAS
NATIONAL WEATHER SERVICE LITTLE ROCK AR
200 PM CST WED DEC 07 2016

NOTE: "FAIR" INDICATES FEW OR NO CLOUDS BELOW 12,000 FEET WITH NO
SIGNIFICANT WEATHER AND/OR OBSTRUCTIONS TO VISIBILITY.

ARZ001-003-010-029-072100-
NORTHWEST ARKANSAS
  
CITY           SKY/WX    TMP DP  RH WIND       PRES   REMARKS
FAYETTEVILLE   CLOUDY    34  23  64 E7        30.17R WCI  28          
FORT SMITH     CLOUDY    40  27  59 NE12      30.17S                  
HARRISON       CLOUDY    35  17  47 CALM      30.17S                  
BENTONVILLE    CLOUDY    34  19  55 E9        30.18S WCI  26          
ROGERS         LGT RAIN  33  19  56 NE8       30.18R WCI  26          
SILOAM SPGS    CLOUDY    34  21  60 E7        30.18R WCI  28          
HIGHFILL       CLOUDY    34  24  67 E7        30.17R WCI  28          
SPRINGDALE     LGT SNOW  32  25  74 E10       30.19R FOG     WCI  24  
$$

ARZ004-005-016-072100-
NORTH CENTRAL ARKANSAS
  
CITY           SKY/WX    TMP DP  RH WIND       PRES   REMARKS
BATESVILLE     CLOUDY    41  21  45 NE6       30.19F                  
FLIPPIN        CLOUDY    37  16  41 N5        30.16F                  
MTN HOME       CLOUDY    36  19  50 NE3       30.17F                  
$$

ARZ040-041-072100-
WEST CENTRAL ARKANSAS
  
CITY           SKY/WX    TMP DP  RH WIND       PRES   REMARKS
MENA           CLOUDY    43  41  93 E6        30.12R                  
MOUNT IDA      CLOUDY    42  35  76 VRB3      30.11R                  
$$

ARZ009-017-025-026-028-072100-
NORTHEAST ARKANSAS
  
CITY           SKY/WX    TMP DP  RH WIND       PRES   REMARKS
CORNING        CLOUDY    41  23  48 NE7       30.20F                  
JONESBORO      CLOUDY    42  28  57 NE8       30.18F                  
NEWPORT        CLOUDY    41  29  62 N8        30.19S                  
WALNUT RIDGE   CLOUDY    41  25  52 N8        30.19S                  
BLYTHEVILLE    CLOUDY    46  31  55 N9        30.19S                  
$$

ARZ022-023-033-042-044-072100-
CENTRAL ARKANSAS
  
CITY           SKY/WX    TMP DP  RH WIND       PRES   REMARKS
LITTLE ROCK    CLOUDY    41  33  73 NE8       30.18S                  
N LITTLE ROCK    N/A     40  31  72 E6        30.20R                  
JACKSONVILLE   CLOUDY    41  31  68 NE7       30.17S                  
SEARCY         CLOUDY    42  31  64 NE9       30.20S                  
HOT SPRINGS    CLOUDY    42  35  76 E9        30.15F                  
RUSSELLVILLE   CLOUDY    40  25  55 E5        30.17F                  
CLINTON        CLOUDY    41  23  48 N5        30.18S                  
$$

ARZ036-072100-
EAST ARKANSAS
  
CITY           SKY/WX    TMP DP  RH WIND       PRES   REMARKS
WEST MEMPHIS   CLOUDY    45  34  65 NE9       30.15S                  
$$

ARZ050-053-066-070-073-072100-
SOUTHWEST ARKANSAS
  
CITY           SKY/WX    TMP DP  RH WIND       PRES   REMARKS
ARKADELPHIA    CLOUDY    42  38  85 NE7       30.15F                  
CAMDEN         CLOUDY    46  39  76 NE3       30.13F                  
TEXARKANA      CLOUDY    47  41  80 E5        30.11S                  
EL DORADO      CLOUDY    49  44  83 NE6       30.11F                  
DE QUEEN       CLOUDY    46  40  79 E7        30.11S                  
$$

ARZ056-057-069-072100-
SOUTHEAST ARKANSAS
  
CITY           SKY/WX    TMP DP  RH WIND       PRES   REMARKS
PINE BLUFF     CLOUDY    44  38  79 N6        30.16S                  
STUTTGART      CLOUDY    45  34  65 NE6       30.17S                  
MONTICELLO     CLOUDY    48  40  73 NE6       30.14R                  

$$


  

USA.gov is the U.S. government's official web portal to all federal, state and local government web resources and services.